Location: M?digepalle
(16.1753°N, 80.3496°E)
Time: 07:26:05
(UTC+00:00)

Cosmos 1315 Rocket - Pass Details

Date: 29 October 2020
Orbit: 530 x 567 km, 81.2° (Epoch: 27 November)

Event Time Altitude Azimuth Distance (km) Brightness Sun altitude
Rises 12:44:53 0° 183° (S) 2,660 6.5 -9.1°
Reaches altitude 10° 12:47:01 10° 182° (S) 1,774 5.6 -9.6°
Maximum altitude 12:50:55 79° 95° (E) 546 2.7 -10.5°
Drops below altitude 10° 12:54:51 10° 9° (N) 1,793 5.2 -11.4°
Sets 12:57:01 0° 8° (N) 2,691 6.1 -11.9°
